Regional Weather Roundup
Issued by NWS New Orleans/Baton Rouge, LA

Home | Current Version | Previous Version | Text Only | Print | Product List | Glossary On
Versions: 1 2 3 4 5 6 7 8 9 10 11 12 13 14 15 16 17 18 19 20 21 22 23 24 25 26 27 28 29 30 31 32 33 34 35 36 37 38 39 40 41 42 43 44 45 46 47 48 49 50
000
ASUS44 KLIX 261014
RWRLIX
NEW ORLEANS REGIONAL WEATHER ROUNDUP
NATIONAL WEATHER SERVICE NEW ORLEANS LA
500 AM CDT FRI MAY 26 2017

NOTE: "FAIR" INDICATES FEW OR NO CLOUDS BELOW 12,000 FEET WITH NO
      SIGNIFICANT WEATHER AND/OR OBSTRUCTIONS TO VISIBILITY.
      SKY/WX - SKY CONDITION AND SIGNIFICANT WEATHER.
      TMP - AIR TEMPERATURE.     DP    - DEWPOINT TEMPERATURE.
      RH  - RELATIVE HUMIDITY.   PRES  - PRESSURE.
      HI  - HEAT INDEX.          WCI   - WIND CHILL INDEX.

*  THESE STATIONS ARE NOT NWS OR FAA STATIONS AND ARE NOT UNDER
   NWS QUALITY CONTROL.

LAZ038-040-048-061>063-065>067-069-261100-
SOUTHEAST LOUISIANA

CITY           SKY/WX    TMP DP  RH WIND       PRES   REMARKS
N.O. INTL ARPT CLEAR     70  64  81 S6        29.94R
N.O. LAKEFRONT CLEAR     70  64  81 S9        29.94R
N.O. DOWNTOWN*   N/A     73  63  70 S7          N/A
RESERVE*         N/A     68  62  83 SE7       29.93R
SLIDELL        CLEAR     65  61  87 CALM      29.94R
BATON ROUGE    CLEAR     67  61  81 S7        29.91S
BOOTHVILLE     CLEAR     70  66  87 SE6       29.96S
BELLE CHASSE   CLEAR    N/A N/A N/A S5        29.94R
BOGALUSA*        N/A     62  59  88 CALM      29.96R
GALLIANO*      SUNNY     63  59  88 CALM      29.94R
NEW ROADS*       N/A     65  62  89 S5        29.92R
GONZALES*        N/A     67  62  83 S5        29.92R
HAMMOND*       CLEAR     64  59  82 CALM      29.94R
HOUMA*         NOT AVBL
PORT FOURCHON* SUNNY     75  64  69 S12G18    29.94R

$$

MSZ070-080>082-261100-
SOUTHERN MISSISSIPPI

CITY           SKY/WX    TMP DP  RH WIND       PRES   REMARKS
MCCOMB         PTCLDY    62  59  90 S3        29.93R
GULFPORT       PTCLDY    73  62  68 S6        29.95R
BILOXI         CLEAR     73  64  72 SW8       29.95R
PASCAGOULA     CLEAR     61  59  93 CALM      29.97R

$$

COASTAL OBSERVATIONS
LAKE AND NEARSHORE STATIONS

STATION/POSITION TIME  TEMP    WIND        PRES    WAVE
                       AIR SEA DIR/SP/G            HT/PER
                 (UTC) (F)     (DEG/KT/KT) (MB)    (FT/S)
PASCAGOULA       0942   75     210/ 12/ 14 1014.1
WAVELAND YACHT   0942   74 77  200/  8/ 13 1013.8
GRAND ISLE       0942   75 78  180/  9/ 12 1013.6
SOUTHWEST PASS   0936          170/ 10/ 12   N/A
NEW CANAL        0942   72 78  180/  4/  7 1013.5
SHELL BEACH      0942   71 79  160/  8/ 11 1013.8

OFFSHORE STATIONS

STATION/POSITION TIME  TEMP    WIND        PRES    WAVE
                       AIR SEA DIR/SP/G            HT/PER
                 (UTC) (F)     (DEG/KT/KT) (MB)    (FT/S)
64 S DAUPHIN ISL 0950   75 77  150/ 10/ 12 1014.9    2/ 6

$$




USA.gov is the U.S. government's official web portal to all federal, state and local government web resources and services.